Погода в Магдагачах

Россия / Амурская область     53°27′12″N   125°48′38″E
темп.,
°C
ветер,
м/с
пор.,
м/с
влажн.,
%
обл.,
%
осадки,
мм/ч
давл.,
гПа
погр.,
м
23 апреля, пт
пт2300:00−1ссз41062100 0.0 1027776
03:00−2ссз510485 0.0 1030787
06:00−3ссз41046100 0.0 1032591
09:000ссз5835100 0.0 10331217
12:00+3ссз573023 0.0 10331728
15:00+5ссз472916 0.0 10322182
18:00+4сз463542 0.0 10322172
21:00−1сз411530 0.0 1034383
24 апреля, сб
сб2400:00−3зсз28620 0.0 1034153
03:00−2з4125783 0.0 1032348
06:00−2з41357100 0.0 1031406
09:00+5сз6123496 0.0 10291892
12:00+7сз71231100 0.0 10272561
15:00+8сз7133288 0.0 10252772
18:00+6сз713451 0.0 10251888
21:00+3сз512570 0.0 1027861
25 апреля, вс
вс2500:000сз39735 0.0 1028253
03:00−2ссз22825 0.0 102819
06:00−2зсз23785 0.0 102885
09:00+5сз34425 0.0 10261105
12:00+9зсз343255 0.0 10231684
15:00+11зсз3531100 0.0 10191789
18:00+10зсз243370 0.0 10171372
21:00+6ююв1148100 0.0 101610
26 апреля, пн
пн2600:00+5ююв2249100 0.0 101421
03:00+4всв3451100 0.0 101266
06:00+4вюв3855100 0.0 1008215
09:00+8вюв3542100 0.0 1005442
12:00+14юв5736100 0.0 10001254
15:00+14ююв51134100 0.0 9961896
18:00+12юв383799 0.1 994663
21:00+9ююз2577100 0.3 993170
27 апреля, вт
вт2700:00+5зюз51088100 0.3 996613
03:00+4зюз4888100 0.3 996575
06:00+3зюз2691100 0.0 997275
09:00+6з2272100 0.0 997660
12:00+6с2174100 0.1 997765
15:00+4ссв3292100 0.4 997734
18:00+3ссз2597100 1.8 998686
21:00+2с3989100 2.9 999799